QPF
0.00 0.00 0.00 0.00 0.00 0.00 0.00 0.00 0.00 0.00 0.00 0.00 0.00 0.00 0.00 0.00 0.00 0.00 0.00 0.00 0.00 0.00 0.00 0.00 0.00 0.00 0.00 0.00 0.00 0.00 0.00 0.00 0.00 0.00 0.00 0.00 0.00 0.00 0.00 0.00 0.00 0.00 0.00
0.00 0.00 0.00 0.00 0.00 0.00 0.00 0.00 0.00 0.00 0.00 0.00 0.00 0.00 0.00 0.00 0.00 0.00 0.00 0.00 0.00 0.00 0.00 0.00 0.00 0.00 0.00 0.00 0.00 0.00 0.00 0.00 0.00 0.00 0.00 0.00 0.00 0.00 0.00 0.00 0.00 0.00 0.00
0.00 0.00 0.00 0.00 0.00 0.00 0.00 0.00 0.00 0.00 0.00 0.00 0.00 0.00 0.00 0.00 0.00 0.00 0.00 0.00 0.00 0.00 0.00 0.00 0.00 0.00 0.00 0.00 0.00 0.00 0.00 0.00 0.00 0.00 0.00 0.00 0.00 0.00 0.00 0.00 0.00 0.00 0.00
0.00 0.00 0.00 0.00 0.00 0.00 0.00 0.00 0.00 0.00 0.00 0.00 0.00 0.00 0.00 0.00 0.00 0.00 0.00 0.00 0.00 0.00 0.00 0.00 0.00 0.00 0.00 0.00 0.00 0.00 0.00 0.00 0.00 0.00 0.00 0.00 0.00 0.00 0.00 0.00 0.00 0.00 0.00
0.00 0.00 0.00 0.00 0.00 0.00 0.00 0.00 0.00 0.00 0.00 0.00 0.00 0.00 0.00 0.00 0.00 0.00 0.00 0.00 0.00 0.00 0.00 0.00 0.00 0.00 0.00 0.00 0.00 0.00 0.00 0.00 0.00 0.00 0.00 0.00 0.00 0.00 0.00 0.00 0.00 0.00 0.00
0.00 0.00 0.00 0.00 0.00 0.00 0.00 0.00 0.00 0.00 0.00 0.00 0.00 0.00 0.00 0.00 0.00 0.00 0.00 0.00 0.00 0.00 0.00 0.00 0.00 0.00 0.00 0.00 0.00 0.00 0.00 0.00 0.00 0.00 0.00 0.00 0.00 0.00 0.00 0.00 0.00 0.00 0.00
0.00 0.00 0.00 0.00 0.00 0.00 0.00 0.00 0.00 0.00 0.00 0.00 0.00 0.00 0.00 0.00 0.00 0.00 0.00 0.00 0.00 0.00 0.00 0.00 0.00 0.00 0.00 0.00 0.00 0.00 0.00 0.00 0.00 0.00 0.00 0.00 0.00 0.00 0.00 0.00 0.00 0.00 0.00
0.00 0.00 0.00 0.00 0.00 0.00 0.00 0.00 0.00 0.00 0.00 0.00 0.00 0.00 0.00 0.00 0.00 0.00 0.00 0.00 0.00 0.00 0.00 0.00 0.00 0.00 0.00 0.00 0.00 0.00 0.00 0.00 0.00 0.00 0.00 0.00 0.00 0.00 0.00 0.00 0.00 0.00 0.00
0.00 0.00 0.00 0.00 0.00 0.00 0.00 0.00 0.00 0.00 0.00 0.00 0.00 0.00 0.00 0.00 0.00 0.00 0.00 0.00 0.00 0.00 0.00 0.00 0.00 0.00 0.00 0.00 0.00 0.00 0.00 0.00 0.00 0.00 0.00 0.00 0.00 0.00 0.00 0.00 0.00 0.00 0.00
0.00 0.00 0.00 0.00 0.00 0.00 0.00 0.00 0.00 0.00 0.00 0.00 0.00 0.00 0.00 0.00 0.00 0.00 0.00 0.00 0.00 0.00 0.00 0.00 0.00 0.00 0.00 0.00 0.00 0.00 0.00 0.00 0.00 0.00 0.00 0.00 0.00 0.00 0.00 0.00 0.00 0.00 0.00
0.00 0.00 0.00 0.00 0.00 0.00 0.00 0.00 0.00 0.00 0.00 0.00 0.00 0.00 0.00 0.00 0.00 0.00 0.00 0.00 0.00 0.00 0.00 0.00 0.00 0.00 0.00 0.00 0.00 0.00 0.00 0.00 0.00 0.00 0.00 0.00 0.00 0.00 0.00 0.00 0.00 0.00 0.00
0.00 0.00 0.00 0.00 0.00 0.00 0.00 0.00 0.00 0.00 0.00 0.00 0.00 0.00 0.00 0.00 0.00 0.00 0.00 0.00 0.00 0.00 0.00 0.00 0.00 0.00 0.00 0.00 0.00 0.00 0.00 0.00 0.00 0.00 0.00 0.00 0.00 0.00 0.00 0.00 0.00 0.00 0.00
0.00 0.00 0.00 0.00 0.00 0.00 0.00 0.00 0.00 0.00 0.00 0.00 0.00 0.00 0.00 0.00 0.00 0.00 0.00 0.00 0.00 0.00 0.00 0.00 0.00 0.00 0.00 0.00 0.00 0.00 0.00 0.00 0.00 0.00 0.00 0.00 0.00 0.00 0.00 0.00 0.00 0.00 0.00
0.00 0.00 0.00 0.00 0.00 0.00 0.00 0.00 0.00 0.00 0.00 0.00 0.00 0.00 0.00 0.00 0.00 0.00 0.00 0.00 0.00 0.00 0.00 0.00 0.00 0.00 0.00 0.00 0.00 0.00 0.00 0.00 0.00 0.00 0.00 0.00 0.00 0.00 0.00 0.00 0.00 0.00 0.00
0.00 0.00 0.00 0.00 0.00 0.00 0.00 0.00 0.00 0.00 0.00 0.00 0.00 0.00 0.00 0.00 0.00 0.00 0.00 0.00 0.00 0.00 0.00 0.00 0.00 0.00 0.00 0.00 0.00 0.00 0.00 0.00 0.00 0.00 0.00 0.00 0.00 0.00 0.00 0.00 0.00 0.00 0.00
0.00 0.00 0.00 0.00 0.00 0.00 0.00 0.00 0.00 0.00 0.00 0.00 0.00 0.00 0.00 0.00 0.00 0.00 0.00 0.00 0.00 0.00 0.00 0.00 0.00 0.00 0.00 0.00 0.00 0.00 0.00 0.00 0.00 0.00 0.00 0.00 0.00 0.00 0.00 0.00 0.00 0.00 0.00
0.00 0.00 0.00 0.00 0.00 0.00 0.00 0.00 0.00 0.00 0.00 0.00 0.00 0.00 0.00 0.00 0.00 0.00 0.00 0.00 0.00 0.00 0.00 0.00 0.00 0.00 0.00 0.00 0.00 0.00 0.00 0.00 0.00 0.00 0.00 0.00 0.00 0.00 0.00 0.00 0.00 0.00 0.00
0.00 0.00 0.01 0.00 0.00 0.01 0.01 0.01 0.01 0.01 0.00 0.00 0.00 0.00 0.01 0.00 0.00 0.00 0.00 0.00 0.00 0.00 0.00 0.00 0.00 0.00 0.00 0.00 0.00 0.00 0.00 0.00 0.00 0.00 0.00 0.00 0.00 0.00 0.00 0.00 0.00 0.00 0.00
0.00 0.00 0.01 0.00 0.00 0.01 0.00 0.00 0.00 0.00 0.00 0.00 0.00 0.00 0.00 0.00 0.00 0.00 0.00 0.00 0.00 0.00 0.00 0.00 0.00 0.00 0.00 0.00 0.00 0.00 0.00 0.00 0.00 0.00 0.00 0.00 0.00 0.00 0.00 0.00 0.00 0.00 0.00
0.00 0.00 0.00 0.00 0.00 0.00 0.00 0.00 0.00 0.00 0.00 0.00 0.01 0.01 0.01 0.01 0.00 0.00 0.00 0.01 0.01 0.01 0.01 0.00 0.00 0.00 0.00 0.00 0.00 0.00 0.00 0.00 0.00 0.00 0.00 0.00 0.00 0.00 0.00 0.00 0.00 0.00 0.00
0.00 0.00 0.00 0.00 0.00 0.00 0.00 0.00 0.00 0.00 0.00 0.01 0.01 0.01 0.02 0.02 0.02 0.01 0.01 0.02 0.03 0.03 0.03 0.02 0.01 0.00 0.00 0.00 0.00 0.00 0.00 0.00 0.00 0.00 0.00 0.00 0.00 0.00 0.00 0.00 0.00 0.00 0.00
0.00 0.00 0.00 0.00 0.00 0.00 0.00 0.00 0.00 0.00 0.00 0.00 0.00 0.00 0.00 0.00 0.01 0.01 0.01 0.02 0.02 0.03 0.04 0.04 0.03 0.02 0.02 0.02 0.02 0.01 0.00 0.00 0.00 0.00 0.00 0.00 0.00 0.00 0.00 0.00 0.00 0.00 0.00
0.00 0.00 0.00 0.00 0.00 0.00 0.00 0.00 0.00 0.00 0.00 0.00 0.00 0.00 0.00 0.00 0.00 0.01 0.01 0.01 0.01 0.01 0.02 0.02 0.03 0.03 0.02 0.01 0.01 0.00 0.00 0.00 0.00 0.00 0.00 0.00 0.00 0.00 0.00 0.00 0.00 0.00 0.00
0.00 0.00 0.00 0.00 0.00 0.00 0.00 0.00 0.00 0.00 0.00 0.00 0.00 0.00 0.00 0.00 0.00 0.00 0.00 0.00 0.00 0.00 0.00 0.01 0.01 0.01 0.01 0.01 0.00 0.01 0.01 0.01 0.02 0.01 0.01 0.01 0.01 0.01 0.01 0.00 0.00 0.00 0.00
0.00 0.00 0.00 0.00 0.00 0.00 0.00 0.00 0.00 0.00 0.00 0.00 0.00 0.00 0.00 0.00 0.00 0.00 0.00 0.00 0.00 0.00 0.00 0.00 0.01 0.01 0.02 0.02 0.01 0.01 0.02 0.03 0.02 0.02 0.02 0.02 0.03 0.03 0.03 0.02 0.01 0.01 0.01
0.00 0.00 0.00 0.00 0.00 0.00 0.00 0.00 0.00 0.00 0.00 0.00 0.00 0.00 0.00 0.01 0.01 0.00 0.01 0.00 0.01 0.00 0.00 0.00 0.00 0.00 0.00 0.01 0.00 0.01 0.01 0.01 0.01 0.02 0.02 0.02 0.04 0.03 0.06 0.08 0.08 0.07 0.06
MSLP
1016.59 1016.34 1016.07 1015.83 1015.48 1015.21 1015.13 1014.88 1014.60 1014.47 1014.29 1014.28 1014.28 1014.36 1014.46 1014.57 1014.73 1015.02 1015.11 1015.17 1015.44 1015.50 1015.76 1015.98 1016.02 1016.32 1016.61 1016.96 1017.38 1017.69 1017.98 1018.32 1018.11 1017.14 1017.06 1016.79 1017.06 1017.07 1017.14 1017.28 1017.44 1017.67 1017.79
1017.32 1016.93 1016.63 1016.27 1015.86 1015.53 1015.22 1014.82 1014.44 1014.19 1013.97 1013.79 1013.78 1013.76 1013.76 1013.83 1013.84 1014.02 1014.11 1014.14 1014.39 1014.48 1014.51 1014.93 1014.90 1015.29 1015.60 1015.93 1016.25 1016.51 1016.79 1017.04 1017.35 1016.66 1016.61 1016.67 1016.72 1016.51 1016.48 1016.79 1016.79 1016.89 1017.05
1017.64 1017.33 1016.96 1016.62 1016.23 1015.92 1015.55 1015.09 1014.61 1014.17 1013.73 1013.42 1013.30 1013.21 1013.09 1012.99 1013.00 1013.05 1013.04 1013.07 1013.17 1013.16 1013.28 1013.60 1013.64 1014.08 1014.43 1014.71 1014.95 1015.20 1015.43 1015.69 1016.11 1016.14 1015.72 1015.94 1015.98 1016.17 1016.39 1016.31 1016.21 1016.33 1016.23
1018.00 1017.68 1017.30 1016.90 1016.56 1016.14 1015.70 1015.25 1014.82 1014.39 1013.95 1013.44 1013.08 1012.80 1012.54 1012.32 1012.25 1012.13 1012.15 1012.20 1012.15 1012.08 1012.09 1012.23 1012.35 1012.63 1012.97 1013.26 1013.65 1013.88 1014.18 1014.58 1014.91 1015.09 1015.01 1015.11 1015.49 1015.64 1015.77 1015.90 1015.99 1015.75 1015.60
1018.36 1017.90 1017.48 1016.96 1016.56 1016.13 1015.72 1015.28 1014.82 1014.38 1013.98 1013.60 1013.18 1012.61 1012.17 1011.89 1011.62 1011.48 1011.38 1011.19 1011.11 1011.06 1010.96 1011.07 1011.18 1011.18 1011.39 1011.65 1012.11 1012.49 1012.85 1013.18 1013.46 1013.81 1013.86 1014.12 1014.52 1015.07 1014.83 1014.64 1015.01 1015.06 1014.92
1018.49 1018.03 1017.42 1016.93 1016.57 1016.22 1015.75 1015.30 1014.85 1014.38 1013.94 1013.52 1013.08 1012.71 1012.16 1011.62 1011.06 1010.76 1010.58 1010.42 1010.22 1010.21 1010.13 1010.04 1010.05 1010.07 1010.30 1010.41 1010.51 1010.68 1011.03 1011.35 1011.58 1011.96 1012.12 1012.16 1012.24 1012.55 1012.98 1013.20 1013.80 1014.61 1014.92
1018.42 1017.88 1017.33 1016.83 1016.52 1016.10 1015.66 1015.33 1014.94 1014.48 1014.01 1013.57 1013.04 1012.54 1011.95 1011.33 1010.68 1010.23 1009.82 1009.60 1009.40 1009.34 1009.32 1009.15 1009.08 1009.01 1009.09 1009.29 1009.34 1009.35 1009.41 1009.47 1009.52 1009.96 1009.98 1009.97 1010.34 1010.56 1010.91 1011.93 1012.06 1012.23 1012.27
1018.24 1017.69 1017.21 1016.78 1016.36 1015.87 1015.53 1015.28 1014.84 1014.36 1014.01 1013.51 1012.92 1012.41 1011.91 1011.13 1010.53 1009.96 1009.45 1009.06 1008.72 1008.41 1008.26 1008.10 1007.99 1007.88 1007.94 1008.14 1008.25 1008.10 1007.93 1007.94 1008.17 1008.55 1008.36 1008.60 1008.62 1009.09 1009.39 1009.64 1010.28 1011.04 1011.48
1018.20 1017.71 1017.18 1016.70 1016.23 1015.77 1015.34 1014.93 1014.49 1014.14 1013.69 1013.17 1012.59 1012.07 1011.68 1010.86 1010.19 1009.60 1009.14 1008.72 1008.30 1007.83 1007.37 1007.13 1007.00 1006.86 1006.81 1006.86 1006.91 1006.81 1006.67 1006.42 1006.73 1006.75 1006.63 1006.81 1007.19 1007.70 1008.19 1009.17 1009.74 1010.87 1010.88
1018.43 1017.93 1017.27 1016.66 1016.15 1015.62 1015.13 1014.61 1014.04 1013.70 1013.27 1012.67 1012.15 1011.68 1011.13 1010.56 1009.79 1009.33 1008.83 1008.43 1007.93 1007.42 1006.88 1006.44 1006.14 1005.90 1005.73 1005.71 1005.74 1005.76 1005.40 1005.41 1005.73 1005.69 1005.61 1005.68 1006.06 1006.31 1006.77 1007.04 1007.90 1008.53 1009.23
1018.53 1017.88 1017.25 1016.62 1016.06 1015.38 1014.74 1014.23 1013.70 1013.24 1012.72 1012.32 1011.75 1011.16 1010.62 1010.07 1009.47 1008.88 1008.48 1008.14 1007.69 1007.05 1006.54 1006.03 1005.52 1005.07 1004.85 1004.68 1004.53 1004.43 1004.00 1004.34 1004.28 1004.34 1004.37 1004.43 1004.63 1004.89 1005.23 1005.65 1006.01 1006.52 1007.07
1018.55 1017.94 1017.21 1016.59 1015.97 1015.29 1014.72 1014.03 1013.37 1012.84 1012.26 1011.80 1011.29 1010.69 1010.05 1009.50 1009.02 1008.54 1007.99 1007.61 1007.23 1006.80 1006.15 1005.59 1005.07 1004.61 1004.19 1003.82 1003.51 1003.09 1002.94 1003.12 1003.24 1003.33 1003.33 1003.24 1003.41 1003.60 1003.81 1004.13 1004.55 1004.75 1004.82
1018.61 1017.92 1017.23 1016.58 1015.92 1015.22 1014.54 1013.72 1013.01 1012.53 1011.94 1011.35 1010.81 1010.20 1009.53 1008.97 1008.49 1008.08 1007.57 1007.00 1006.51 1006.13 1005.58 1004.97 1004.47 1004.07 1003.57 1003.04 1002.59 1002.17 1002.02 1002.13 1002.12 1002.10 1001.94 1001.87 1002.04 1002.27 1002.65 1003.21 1003.65 1004.04 1004.33
1018.65 1018.01 1017.21 1016.39 1015.51 1014.84 1014.28 1013.64 1012.98 1012.38 1011.67 1011.05 1010.43 1009.77 1009.12 1008.56 1008.05 1007.58 1007.07 1006.53 1005.90 1005.32 1004.80 1004.22 1003.76 1003.30 1002.80 1002.25 1001.75 1001.34 1001.08 1000.99 1000.85 1000.65 1000.56 1000.52 1000.72 1001.24 1001.66 1002.12 1003.06 1003.69 1004.23
1018.86 1018.08 1017.37 1016.77 1015.89 1014.87 1014.07 1013.36 1012.60 1012.02 1011.60 1010.97 1010.41 1009.81 1009.10 1008.21 1007.68 1007.21 1006.69 1005.93 1005.37 1004.81 1004.20 1003.51 1003.08 1002.68 1002.15 1001.62 1001.13 1000.71 1000.36 1000.12 999.94 999.76 999.67 999.67 999.92 1000.23 1000.50 1001.01 1001.59 1002.43 1002.92
1018.85 1018.14 1017.47 1016.65 1015.95 1015.21 1014.35 1013.43 1012.98 1012.23 1011.49 1010.87 1010.34 1009.72 1008.76 1008.07 1007.29 1006.51 1005.79 1005.14 1004.57 1004.12 1003.41 1002.92 1002.35 1002.04 1001.61 1001.10 1000.60 1000.16 999.88 999.59 999.28 999.01 998.83 998.77 998.88 999.32 999.67 1000.09 1000.58 1000.94 1001.46
1019.23 1018.38 1017.68 1016.99 1016.34 1015.65 1014.83 1013.99 1012.89 1011.93 1011.45 1010.66 1009.72 1008.94 1008.31 1007.59 1006.78 1006.06 1005.18 1004.31 1003.53 1003.13 1002.60 1002.13 1001.66 1001.36 1000.84 1000.42 1000.06 999.67 999.27 998.89 998.64 998.41 998.16 998.02 998.01 998.32 998.65 999.09 999.47 999.80 1000.08
1019.68 1018.88 1018.20 1017.70 1017.07 1016.31 1015.59 1014.84 1014.07 1013.04 1011.76 1011.10 1010.66 1009.72 1008.87 1008.04 1007.28 1006.31 1004.95 1003.71 1002.77 1002.17 1002.00 1001.47 1000.97 1000.52 1000.10 999.73 999.32 999.00 998.60 998.22 997.94 997.70 997.41 997.17 997.09 997.24 997.51 997.76 998.22 998.59 999.07
1020.00 1019.35 1018.68 1018.27 1017.59 1016.88 1016.24 1015.52 1014.74 1013.88 1013.00 1012.02 1010.94 1010.31 1009.60 1008.67 1007.44 1006.52 1005.63 1004.29 1003.03 1002.17 1001.34 1000.69 1000.22 999.75 999.30 998.95 998.55 998.14 997.80 997.52 997.23 996.88 996.56 996.34 996.17 996.20 996.15 996.37 996.72 997.21 997.81
1020.74 1020.05 1019.34 1018.83 1018.20 1017.46 1016.90 1016.21 1015.48 1014.73 1013.93 1013.06 1012.12 1011.24 1010.11 1009.06 1008.05 1007.43 1006.77 1005.89 1004.94 1004.00 1002.95 1001.60 999.93 999.12 998.63 998.20 997.78 997.38 996.95 996.62 996.35 996.05 995.68 995.40 995.19 995.09 994.93 995.16 995.50 995.95 996.40
1021.37 1020.86 1020.11 1019.43 1018.81 1018.18 1017.58 1016.93 1016.25 1015.49 1014.75 1013.92 1013.10 1012.11 1011.04 1010.24 1009.39 1008.60 1007.72 1006.74 1005.87 1004.86 1003.85 1002.65 1001.38 1000.01 998.33 997.48 997.00 996.50 996.04 995.63 995.35 995.03 994.62 994.32 994.11 993.96 993.98 994.07 994.25 994.62 995.11
1021.78 1021.24 1020.69 1020.06 1019.40 1018.77 1018.15 1017.67 1017.06 1016.36 1015.60 1014.78 1013.82 1012.86 1011.88 1011.07 1010.12 1009.19 1008.31 1007.39 1006.46 1005.54 1004.57 1003.43 1002.14 1000.96 999.79 998.47 996.89 995.59 995.13 994.69 994.26 993.79 993.39 993.15 992.95 992.77 992.83 993.02 993.25 993.57 994.02
1022.32 1021.81 1021.22 1020.65 1020.01 1019.47 1018.85 1018.28 1017.66 1016.91 1016.26 1015.51 1014.69 1013.64 1012.68 1011.80 1010.92 1009.91 1008.85 1007.88 1006.87 1005.81 1004.81 1003.72 1002.52 1001.40 1000.37 999.26 998.16 996.88 995.49 993.96 993.05 992.54 992.04 991.76 991.63 991.53 991.57 991.71 991.93 992.49 992.94
1022.64 1022.10 1021.71 1021.24 1020.65 1020.04 1019.43 1018.86 1018.28 1017.65 1016.94 1016.12 1015.32 1014.37 1013.46 1012.51 1011.52 1010.54 1009.54 1008.47 1007.35 1006.29 1005.26 1004.17 1003.14 1002.09 1000.77 999.61 998.34 997.09 995.81 994.48 993.44 992.18 990.73 990.41 990.24 990.12 990.25 990.51 990.59 990.99 991.59
1023.15 1022.45 1021.99 1021.60 1021.21 1020.43 1019.79 1019.24 1018.73 1018.14 1017.40 1016.60 1015.79 1014.96 1014.10 1013.20 1012.19 1011.17 1010.15 1009.04 1007.92 1006.72 1005.58 1004.52 1003.44 1002.31 1000.92 999.72 998.42 996.89 995.36 993.72 992.60 991.74 990.79 989.76 989.00 988.80 988.85 989.16 989.48 989.78 990.51
1023.33 1022.92 1022.38 1021.83 1021.47 1020.92 1020.34 1019.68 1019.04 1018.39 1017.68 1016.93 1016.07 1015.36 1014.50 1013.63 1012.72 1011.71 1010.60 1009.45 1008.23 1007.08 1005.93 1004.79 1003.67 1002.52 1001.19 999.93 998.54 996.92 995.04 993.39 992.17 990.84 989.87 988.99 988.07 987.64 987.74 988.05 988.45 988.93 989.32
Thickness
5640 5645 5649 5653 5658 5662 5665 5669 5673 5676 5678 5680 5682 5683 5684 5684 5683 5683 5686 5688 5687 5689 5688 5687 5688 5687 5685 5682 5679 5677 5676 5674 5680 5687 5684 5686 5684 5682 5680 5678 5676 5673 5668
5624 5629 5634 5639 5644 5649 5653 5658 5663 5668 5671 5674 5675 5677 5679 5681 5682 5681 5683 5685 5684 5686 5687 5685 5688 5685 5683 5681 5679 5678 5677 5674 5675 5684 5679 5677 5676 5677 5677 5674 5671 5668 5664
5611 5615 5620 5624 5629 5633 5638 5644 5650 5655 5661 5666 5669 5671 5673 5675 5676 5677 5679 5681 5682 5684 5685 5684 5686 5683 5682 5680 5679 5679 5677 5674 5671 5675 5682 5673 5672 5669 5666 5667 5666 5662 5659
5596 5600 5605 5609 5613 5618 5623 5629 5634 5640 5645 5652 5657 5661 5665 5668 5670 5672 5673 5674 5677 5680 5682 5682 5683 5682 5681 5680 5677 5676 5674 5671 5669 5668 5673 5673 5665 5662 5659 5660 5658 5654 5653
5580 5585 5590 5595 5599 5604 5609 5614 5620 5625 5631 5636 5641 5647 5653 5657 5661 5663 5665 5668 5671 5673 5676 5677 5677 5680 5679 5678 5675 5673 5671 5668 5667 5665 5667 5666 5660 5655 5658 5656 5655 5650 5646
5566 5571 5577 5581 5585 5589 5595 5600 5605 5610 5615 5620 5625 5630 5636 5643 5649 5653 5656 5659 5663 5665 5668 5670 5672 5673 5672 5673 5674 5673 5671 5668 5667 5665 5667 5668 5670 5664 5659 5657 5648 5637 5637
5550 5556 5563 5568 5573 5576 5581 5584 5589 5595 5598 5603 5609 5614 5621 5626 5634 5639 5644 5649 5654 5656 5658 5661 5663 5666 5666 5665 5666 5668 5668 5670 5670 5666 5667 5670 5668 5665 5659 5645 5645 5644 5647
5534 5541 5546 5551 5557 5562 5566 5570 5574 5580 5583 5588 5594 5598 5605 5612 5617 5623 5629 5635 5641 5646 5649 5652 5654 5657 5657 5656 5656 5660 5664 5665 5664 5662 5665 5664 5664 5659 5654 5651 5644 5637 5632
5520 5524 5529 5532 5539 5545 5550 5555 5559 5563 5570 5575 5581 5586 5589 5597 5602 5608 5613 5619 5626 5632 5637 5641 5643 5646 5648 5648 5648 5650 5654 5659 5657 5657 5659 5660 5656 5651 5646 5634 5629 5621 5621
5500 5505 5510 5516 5520 5526 5532 5537 5543 5547 5553 5560 5566 5571 5576 5582 5588 5593 5597 5602 5609 5615 5622 5627 5631 5635 5636 5637 5639 5640 5647 5650 5644 5645 5648 5649 5645 5644 5640 5638 5630 5625 5620
5480 5487 5492 5497 5501 5507 5513 5518 5524 5530 5536 5540 5547 5554 5558 5563 5570 5576 5580 5584 5590 5599 5605 5612 5617 5621 5624 5626 5628 5632 5639 5634 5636 5637 5639 5640 5639 5637 5634 5632 5628 5622 5618
5459 5464 5470 5475 5480 5487 5492 5498 5504 5509 5515 5520 5526 5534 5541 5545 5550 5556 5561 5565 5571 5578 5588 5595 5600 5604 5609 5614 5617 5622 5624 5621 5622 5624 5626 5630 5629 5628 5625 5621 5618 5615 5615
5437 5443 5449 5455 5459 5464 5470 5478 5485 5490 5494 5501 5506 5513 5521 5527 5532 5536 5540 5546 5552 5559 5568 5577 5583 5589 5594 5600 5605 5609 5609 5608 5609 5612 5618 5621 5620 5618 5613 5608 5604 5601 5598
5414 5418 5424 5432 5441 5447 5451 5455 5460 5466 5472 5478 5483 5490 5497 5505 5511 5513 5518 5525 5533 5540 5548 5556 5566 5572 5578 5585 5590 5593 5595 5596 5598 5604 5608 5610 5609 5605 5602 5597 5589 5583 5580
5388 5394 5398 5403 5411 5422 5428 5435 5441 5444 5445 5451 5457 5462 5469 5480 5486 5489 5496 5505 5511 5518 5525 5537 5545 5549 5556 5563 5567 5572 5577 5580 5583 5589 5592 5594 5592 5591 5591 5587 5582 5574 5572
5363 5367 5371 5379 5384 5390 5398 5407 5410 5416 5423 5426 5429 5434 5447 5453 5462 5470 5477 5484 5491 5495 5505 5518 5526 5529 5534 5541 5547 5552 5554 5560 5565 5570 5575 5578 5580 5577 5574 5572 5568 5566 5563
5342 5347 5349 5352 5355 5360 5366 5373 5383 5391 5392 5398 5406 5413 5419 5429 5438 5446 5455 5465 5474 5476 5483 5494 5502 5506 5515 5520 5525 5530 5537 5541 5543 5550 5555 5560 5562 5561 5560 5558 5556 5554 5553
5329 5333 5334 5334 5334 5337 5340 5343 5347 5355 5366 5368 5368 5375 5383 5394 5403 5412 5425 5438 5451 5456 5461 5471 5479 5484 5491 5497 5503 5508 5515 5521 5525 5530 5537 5542 5545 5546 5546 5547 5544 5541 5538
5317 5319 5321 5320 5322 5324 5325 5327 5329 5332 5336 5343 5348 5348 5353 5361 5371 5380 5387 5402 5419 5429 5437 5446 5455 5464 5470 5476 5482 5488 5494 5500 5505 5510 5517 5522 5527 5529 5534 5535 5534 5531 5527
5303 5305 5307 5307 5308 5309 5309 5311 5313 5315 5318 5321 5324 5328 5335 5340 5345 5348 5352 5359 5367 5378 5389 5406 5427 5440 5447 5454 5460 5465 5472 5478 5483 5489 5497 5502 5507 5511 5518 5519 5519 5517 5515
5294 5293 5295 5296 5296 5296 5296 5296 5298 5300 5301 5303 5306 5310 5316 5319 5323 5326 5330 5334 5339 5347 5356 5367 5381 5397 5418 5429 5435 5443 5450 5459 5464 5470 5476 5483 5488 5493 5497 5499 5502 5504 5503
5284 5284 5284 5284 5284 5284 5284 5282 5282 5282 5283 5285 5288 5291 5295 5298 5304 5310 5314 5319 5324 5329 5335 5343 5354 5364 5375 5388 5406 5422 5430 5438 5445 5452 5458 5464 5469 5475 5478 5480 5483 5486 5487
5272 5271 5271 5270 5270 5269 5268 5267 5267 5268 5268 5268 5270 5274 5277 5280 5283 5288 5294 5301 5307 5314 5320 5326 5335 5344 5352 5362 5371 5382 5397 5415 5426 5432 5441 5447 5451 5458 5461 5463 5466 5467 5470
5262 5261 5259 5256 5255 5254 5253 5251 5249 5248 5249 5250 5251 5254 5257 5261 5264 5269 5274 5280 5287 5293 5300 5308 5315 5322 5333 5343 5352 5362 5374 5387 5396 5409 5424 5431 5436 5442 5444 5446 5450 5455 5457
5249 5249 5247 5245 5241 5243 5241 5239 5235 5232 5232 5232 5234 5235 5236 5239 5244 5249 5254 5260 5266 5274 5281 5288 5296 5304 5314 5324 5335 5348 5360 5374 5384 5392 5401 5412 5423 5429 5431 5430 5433 5438 5438
5238 5236 5235 5234 5231 5229 5228 5226 5223 5220 5218 5218 5218 5218 5219 5220 5223 5228 5234 5242 5249 5255 5261 5269 5277 5286 5296 5306 5317 5330 5344 5357 5368 5379 5388 5399 5412 5419 5419 5418 5417 5418 5421